Wind_Speed
38 40 40 40 40 40 39 38 38 39 40 41 42 41 41 41 40 40 40 40 41 40 39 39 39 39 38 38 36 36 36 36 35 35 34 34 33 32 32 33 33 33 33
37 38 39 39 40 40 39 39 39 40 41 43 42 42 41 42 42 42 41 41 42 42 42 41 41 40 40 39 38 38 38 37 37 37 36 36 35 35 35 35 35 35 35
37 38 38 39 39 40 40 40 40 41 41 41 41 41 42 43 43 43 43 43 43 44 43 43 42 42 42 41 40 40 39 39 39 38 38 37 37 36 36 36 36 36 36
36 37 38 38 39 40 41 41 40 40 42 43 42 42 43 43 44 44 44 44 45 45 45 45 45 43 42 42 42 41 41 41 40 39 39 39 38 38 37 37 37 37 37
36 37 37 37 38 39 40 41 40 41 41 43 43 43 44 44 45 45 45 45 46 46 47 47 46 45 44 43 43 42 42 42 41 41 40 40 40 40 40 39 38 38 38
36 37 37 38 38 38 40 40 40 41 43 44 45 45 45 44 44 45 46 46 46 46 47 48 47 46 46 45 45 44 43 43 43 43 42 42 41 41 41 41 40 40 40
36 36 37 38 38 38 39 40 41 42 43 44 44 45 46 46 46 46 46 47 47 47 46 47 47 47 47 47 47 46 45 45 45 44 44 43 43 43 43 43 42 42 42
36 37 38 39 39 39 40 40 41 42 43 44 44 45 46 46 47 47 46 47 47 47 47 47 47 48 48 47 47 47 47 47 47 46 46 45 45 44 44 44 44 44 43
36 37 38 38 39 40 41 41 42 43 44 44 45 46 46 47 47 46 46 46 47 47 47 48 48 48 49 48 48 48 49 49 48 48 47 47 46 45 45 45 45 45 44
36 37 39 39 39 40 42 43 44 44 44 45 45 46 46 47 48 47 47 48 48 49 50 49 49 49 49 50 50 50 49 50 49 49 48 48 47 46 46 46 46 46 45
36 37 38 39 40 41 42 43 45 45 46 45 46 47 47 48 48 48 48 49 49 49 50 51 51 50 49 50 50 51 51 50 50 50 50 50 50 50 49 48 48 47 46
36 37 37 38 40 41 42 43 44 45 46 46 47 47 47 48 49 50 50 50 49 49 50 51 52 51 50 51 51 52 51 52 52 51 51 51 51 52 51 50 49 49 48
36 37 37 37 38 40 41 43 44 45 46 47 48 47 48 48 49 49 50 49 49 50 51 52 52 53 52 52 53 53 52 52 52 52 52 52 52 52 53 52 51 50 50
35 35 37 37 37 39 40 41 43 44 45 46 46 47 47 48 49 49 50 50 50 51 52 52 52 53 53 53 53 53 53 52 53 54 54 54 54 54 54 53 52 52 51
34 35 36 37 38 38 38 40 41 42 43 44 45 46 47 48 49 50 50 51 51 51 51 51 51 52 53 53 53 53 54 53 54 55 55 55 56 56 55 54 53 53 53
33 34 34 35 36 37 37 37 39 41 43 43 45 46 47 48 48 49 49 50 51 51 51 51 51 52 52 53 53 54 54 54 55 55 56 55 56 56 55 54 54 55 54
31 32 33 33 34 34 35 36 38 39 41 43 43 44 45 46 46 47 49 49 49 50 50 50 50 51 51 52 52 53 54 54 55 55 55 56 56 55 55 55 55 56 55
29 29 30 31 32 33 34 35 37 38 39 40 41 42 44 45 45 46 48 48 48 48 48 49 50 50 51 52 52 52 52 53 53 54 54 54 55 54 54 54 54 55 54
28 28 29 30 31 32 33 34 35 36 37 38 39 40 41 43 44 46 46 47 47 48 49 49 50 51 51 52 52 51 51 51 52 53 53 53 52 53 53 53 53 53 53
28 28 29 30 31 31 32 33 33 34 36 36 38 39 40 41 42 44 45 45 46 47 48 48 49 50 50 50 51 50 50 50 50 51 50 51 51 51 52 52 52 52 52
28 29 29 30 30 31 31 32 33 34 34 35 36 37 38 39 40 41 43 43 44 45 46 47 48 48 48 49 49 49 48 48 49 49 49 49 49 50 51 51 51 51 53
28 29 30 30 31 31 32 32 33 34 34 35 35 35 35 36 37 38 40 41 42 43 43 44 45 45 46 46 47 47 47 47 47 48 48 48 49 50 51 51 51 52 52
28 28 29 30 30 31 31 32 32 33 33 34 35 35 35 35 36 37 38 39 40 41 41 42 42 43 43 44 45 45 45 45 46 46 47 48 49 50 50 51 52 52 52
29 29 29 29 29 30 30 31 32 32 32 33 34 34 34 34 35 36 37 37 39 40 41 41 42 42 42 42 42 43 44 45 45 46 46 47 47 48 49 50 50 50 51
29 29 29 29 28 28 28 29 30 30 31 32 33 34 34 35 34 35 35 36 37 38 39 40 40 41 41 41 42 42 43 43 43 44 45 46 47 48 48 49 49 49 50
29 29 29 29 28 28 28 28 29 29 30 31 32 32 33 33 34 34 35 36 36 37 38 39 39 40 40 41 42 42 42 42 43 44 44 45 46 47 47 48 48 49 49
Wind_Direction
251 249 247 247 247 246 246 247 246 246 244 244 244 243 242 242 242 242 243 244 244 245 246 246 248 248 249 251 253 254 255 256 258 259 260 260 261 262 262 263 264 264 265
250 249 248 247 246 247 247 247 247 247 246 244 243 243 242 242 242 243 243 245 245 246 246 247 248 249 250 251 253 254 254 255 257 259 260 261 261 262 263 264 264 264 265
250 250 249 247 246 247 247 247 247 246 245 243 243 242 242 243 243 243 244 245 246 246 246 247 247 248 249 251 252 253 254 256 257 258 259 260 261 262 263 264 264 264 265
252 251 249 247 247 247 247 246 247 246 244 243 242 242 243 243 244 245 245 245 245 247 246 246 247 249 249 250 252 252 254 255 257 258 259 260 261 262 263 264 265 265 265
252 251 250 248 248 247 247 246 246 245 243 242 242 242 243 243 244 246 247 246 246 247 247 248 248 248 249 250 251 253 254 255 256 257 259 259 260 262 263 263 264 265 266
251 250 249 248 248 247 246 246 246 245 244 244 242 242 243 244 245 247 247 247 247 248 248 248 248 248 249 249 251 252 253 255 255 257 258 260 261 262 263 264 264 265 266
253 251 250 250 249 248 248 248 246 246 245 246 244 244 245 245 246 248 247 247 248 249 249 249 248 249 249 250 251 252 254 255 256 257 258 260 262 263 263 264 264 264 265
256 255 253 252 250 249 249 250 249 248 248 247 246 247 248 248 247 248 248 248 248 249 249 250 250 250 250 251 252 252 254 255 256 256 257 260 261 262 263 263 264 264 265
258 258 256 255 254 251 250 250 250 251 250 247 247 249 250 250 248 248 249 249 249 249 249 250 251 252 251 251 252 252 253 254 255 256 257 258 260 260 261 262 263 264 264
259 259 257 255 255 253 251 252 251 252 252 250 249 250 251 250 249 249 250 250 250 250 249 250 251 251 251 252 252 253 254 255 256 256 257 258 260 261 261 262 264 264 265
261 260 259 257 256 254 253 253 253 253 252 252 252 252 252 251 250 250 250 250 250 251 250 250 251 252 251 252 252 253 254 255 256 257 259 260 260 261 262 263 263 264 265
264 263 261 260 258 256 255 255 255 254 253 253 253 254 253 252 252 251 250 250 250 251 251 250 251 251 252 252 253 253 254 255 256 257 258 260 261 262 263 263 264 264 265
265 264 262 261 260 259 259 258 256 255 254 254 254 255 254 253 253 252 252 251 250 251 252 252 252 252 253 253 253 253 255 255 256 257 259 260 261 262 262 262 263 264 265
267 265 263 261 261 261 261 260 258 256 256 255 255 255 255 254 253 253 253 252 252 252 252 253 254 254 254 254 254 254 254 256 257 258 260 260 261 262 262 262 263 264 265
268 266 265 263 262 262 262 260 259 258 258 257 257 256 256 255 255 254 254 253 253 254 253 254 255 255 254 254 254 254 256 257 259 260 260 260 261 261 262 263 263 263 264
269 269 267 267 264 263 262 261 260 260 260 259 258 258 258 257 256 254 254 255 255 255 254 254 254 254 254 254 255 255 256 257 259 260 260 260 260 260 261 262 262 263 264
272 271 269 268 267 265 264 262 262 261 260 260 259 259 259 258 256 255 255 256 256 256 255 254 254 254 255 255 255 255 256 257 258 258 259 260 261 260 260 260 261 262 264
273 273 272 270 270 269 267 265 264 262 262 262 261 259 259 258 257 257 256 255 255 255 254 254 254 254 255 256 256 256 257 258 258 259 260 260 261 260 260 260 261 262 263
275 275 274 273 273 272 271 269 267 265 264 263 261 260 260 259 257 256 256 255 255 255 254 254 255 255 256 256 256 256 257 257 259 259 259 260 260 260 260 261 261 261 262
274 275 276 276 276 275 274 272 269 267 266 264 263 262 261 260 258 257 256 256 256 255 254 254 255 256 257 257 256 256 257 258 259 259 259 259 260 260 260 260 261 261 261
274 274 275 276 277 277 276 274 271 269 268 266 265 263 262 261 260 258 257 257 257 256 255 255 256 256 257 256 256 257 257 258 258 258 259 260 260 260 261 260 261 262 262
275 275 275 277 278 278 278 276 273 271 268 267 266 265 265 263 261 259 258 258 257 257 256 257 256 256 256 257 257 257 258 259 259 260 260 260 261 261 261 261 262 263 264
276 276 277 277 279 279 279 277 275 272 270 268 267 266 266 265 262 261 260 259 258 257 257 257 256 257 257 257 257 257 258 260 260 260 261 261 261 262 262 262 263 264 264
278 278 279 278 279 280 279 278 276 274 272 270 268 268 267 267 265 264 261 260 258 257 257 257 256 256 257 258 258 259 259 260 260 261 262 262 262 263 263 264 264 264 265
280 280 280 279 279 279 279 278 277 276 274 272 270 268 267 266 266 265 263 262 262 260 259 258 258 258 258 259 261 262 262 262 263 263 264 263 263 264 264 265 266 266 266
280 280 280 280 279 279 279 279 278 278 277 275 273 271 270 268 266 266 265 264 263 262 261 260 260 260 260 261 262 263 263 263 263 263 264 264 265 266 265 265 266 267 267
Height
5671 5674 5676 5679 5682 5686 5688 5691 5694 5698 5701 5703 5707 5710 5714 5718 5721 5725 5728 5732 5735 5738 5741 5744 5747 5749 5752 5754 5756 5758 5760 5762 5764 5766 5767 5769 5770 5772 5773 5775 5776 5777 5778
5662 5664 5667 5669 5673 5676 5679 5682 5685 5688 5691 5693 5697 5701 5705 5708 5712 5716 5719 5722 5726 5729 5732 5735 5738 5740 5743 5745 5748 5750 5752 5754 5755 5757 5759 5761 5763 5764 5765 5766 5767 5768 5770
5653 5655 5657 5660 5663 5666 5669 5672 5675 5678 5680 5683 5687 5691 5695 5698 5702 5706 5709 5713 5716 5719 5722 5725 5728 5731 5733 5736 5738 5741 5743 5745 5747 5748 5750 5752 5754 5755 5757 5758 5758 5760 5761
5644 5646 5649 5651 5654 5657 5659 5663 5665 5668 5671 5673 5677 5681 5685 5688 5692 5696 5699 5702 5706 5709 5712 5715 5718 5721 5723 5726 5729 5731 5733 5735 5737 5739 5741 5743 5744 5746 5748 5749 5749 5750 5751
5636 5637 5640 5642 5645 5647 5650 5653 5656 5659 5661 5664 5667 5671 5674 5678 5681 5685 5688 5692 5695 5698 5701 5704 5707 5710 5713 5716 5718 5721 5723 5726 5728 5729 5731 5732 5734 5736 5738 5739 5740 5741 5742
5627 5628 5630 5633 5635 5637 5640 5643 5646 5649 5651 5654 5657 5660 5664 5667 5670 5674 5677 5681 5684 5687 5690 5693 5696 5699 5702 5705 5708 5710 5713 5715 5717 5719 5721 5722 5724 5726 5727 5729 5730 5731 5732
5618 5620 5621 5624 5626 5628 5630 5633 5636 5638 5641 5643 5646 5650 5653 5656 5659 5663 5666 5669 5673 5676 5679 5682 5685 5688 5691 5694 5697 5699 5702 5704 5706 5708 5710 5712 5713 5715 5716 5717 5719 5720 5721
5609 5610 5612 5614 5616 5618 5620 5623 5625 5628 5631 5633 5636 5639 5642 5644 5648 5651 5654 5658 5661 5665 5668 5670 5673 5676 5679 5682 5685 5688 5690 5693 5695 5697 5699 5701 5702 5703 5705 5706 5708 5709 5710
5599 5601 5602 5604 5606 5608 5610 5612 5615 5617 5619 5622 5625 5628 5630 5633 5636 5640 5643 5646 5649 5652 5655 5658 5661 5664 5667 5670 5673 5676 5678 5681 5683 5685 5687 5689 5691 5692 5693 5695 5696 5698 5699
5589 5591 5592 5593 5595 5597 5599 5601 5604 5606 5609 5611 5613 5616 5619 5622 5624 5628 5631 5634 5637 5640 5643 5646 5649 5651 5654 5657 5660 5663 5666 5668 5671 5673 5675 5677 5679 5680 5681 5682 5684 5685 5686
5579 5580 5582 5583 5584 5586 5588 5590 5592 5594 5597 5599 5602 5604 5607 5609 5612 5615 5619 5621 5624 5627 5630 5633 5636 5638 5641 5644 5647 5650 5653 5655 5658 5660 5662 5664 5666 5667 5669 5670 5671 5672 5674
5570 5570 5571 5572 5574 5575 5577 5578 5580 5582 5585 5587 5589 5592 5594 5597 5599 5603 5605 5608 5611 5614 5617 5620 5622 5625 5628 5631 5633 5636 5639 5642 5644 5647 5649 5651 5652 5654 5656 5657 5658 5659 5661
5560 5560 5561 5562 5563 5564 5565 5566 5568 5570 5572 5574 5576 5579 5581 5584 5586 5589 5592 5595 5598 5601 5603 5606 5609 5611 5614 5617 5619 5622 5625 5628 5630 5633 5635 5637 5639 5640 5642 5643 5645 5646 5647
5550 5550 5551 5551 5552 5553 5554 5554 5556 5557 5559 5561 5564 5566 5568 5571 5573 5576 5578 5581 5584 5587 5589 5592 5594 5597 5600 5603 5605 5608 5611 5614 5616 5619 5621 5623 5625 5626 5628 5629 5631 5632 5633
5540 5540 5540 5541 5541 5542 5543 5543 5544 5546 5547 5549 5550 5553 5555 5557 5560 5562 5564 5567 5570 5572 5575 5577 5580 5582 5585 5588 5591 5593 5596 5599 5601 5603 5605 5608 5610 5611 5613 5615 5616 5618 5619
5530 5530 5530 5530 5531 5531 5532 5532 5533 5534 5535 5537 5538 5540 5541 5544 5546 5548 5550 5553 5555 5558 5560 5563 5566 5568 5570 5573 5576 5579 5581 5584 5586 5588 5590 5592 5594 5596 5598 5599 5601 5603 5604
5521 5521 5521 5521 5521 5521 5521 5522 5522 5523 5523 5524 5526 5527 5528 5530 5532 5534 5536 5539 5541 5544 5546 5549 5552 5554 5556 5559 5561 5564 5567 5569 5571 5573 5575 5576 5578 5580 5582 5584 5586 5587 5589
5512 5512 5511 5511 5511 5511 5511 5511 5511 5512 5512 5512 5513 5514 5515 5516 5518 5520 5523 5525 5527 5530 5533 5535 5538 5540 5542 5544 5547 5549 5551 5554 5555 5558 5560 5562 5563 5564 5566 5569 5570 5572 5574
5504 5503 5502 5502 5501 5501 5501 5500 5500 5500 5501 5501 5501 5502 5502 5504 5505 5507 5509 5511 5514 5516 5519 5521 5524 5526 5528 5530 5532 5534 5537 5539 5541 5543 5545 5547 5548 5550 5551 5554 5556 5557 5559
5495 5494 5494 5493 5492 5492 5491 5490 5490 5490 5490 5490 5490 5490 5491 5491 5493 5495 5496 5498 5500 5503 5505 5508 5510 5512 5514 5516 5518 5520 5523 5525 5528 5529 5531 5532 5534 5534 5536 5538 5540 5542 5544
5486 5486 5485 5484 5483 5482 5481 5480 5480 5480 5479 5479 5479 5479 5479 5480 5481 5482 5484 5486 5488 5490 5492 5495 5497 5499 5501 5503 5505 5507 5509 5511 5513 5515 5517 5518 5519 5520 5521 5523 5526 5527 5529
5477 5477 5476 5475 5474 5473 5472 5471 5470 5469 5469 5469 5469 5469 5469 5469 5469 5471 5472 5474 5476 5478 5480 5482 5484 5486 5487 5489 5491 5493 5496 5498 5500 5501 5503 5504 5505 5506 5507 5509 5511 5512 5514
5469 5468 5467 5466 5465 5463 5462 5461 5460 5459 5459 5459 5458 5458 5458 5459 5459 5460 5461 5462 5464 5466 5468 5470 5472 5473 5475 5477 5479 5481 5483 5484 5486 5488 5489 5490 5491 5492 5493 5495 5496 5497 5498
5460 5459 5458 5456 5455 5454 5453 5451 5450 5449 5449 5449 5448 5448 5448 5448 5448 5449 5450 5451 5453 5455 5456 5458 5460 5462 5463 5465 5467 5468 5470 5471 5473 5474 5475 5476 5477 5478 5479 5480 5481 5482 5483
5451 5450 5449 5447 5446 5445 5444 5442 5441 5440 5440 5439 5438 5438 5438 5438 5438 5439 5439 5441 5442 5443 5445 5446 5448 5450 5451 5453 5454 5455 5457 5458 5459 5460 5461 5462 5463 5464 5465 5466 5467 5468 5468
5442 5441 5440 5438 5437 5436 5435 5434 5432 5431 5430 5430 5429 5428 5428 5428 5428 5428 5429 5429 5431 5432 5433 5434 5436 5437 5439 5440 5441 5443 5444 5445 5446 5447 5448 5449 5450 5450 5451 5452 5453 5453 5454